Regional Weather Roundup
Issued by NWS

Home | Current Version | Previous Version | Text Only | Print | Product List | Glossary Off
Versions: 1 2 3 4 5 6 7 8 9 10 11 12 13 14 15 16 17 18 19 20 21 22 23 24 25 26 27 28 29 30 31 32 33 34 35 36 37 38 39 40 41 42 43 44 45 46 47 48 49 50

000
ASUS43 KMKX 212011
RWRWI

WISCONSIN REGIONAL WEATHER ROUNDUP
NATIONAL WEATHER SERVICE MILWAUKEE/SULLIVAN WI
300 PM CDT MON AUG 21 2017

NOTE: "FAIR" INDICATES FEW OR NO CLOUDS BELOW 12,000 FEET WITH NO
SIGNIFICANT WEATHER AND/OR OBSTRUCTIONS TO VISIBILITY.

WIZ001-002-006>008-014>016-023>028-212100-
NORTHWEST WISCONSIN

CITY           SKY/WX    TMP DP  RH WIND       PRES   REMARKS
SUPERIOR ARPT    N/A     68  59  73 E7        29.92F
ASHLAND        CLOUDY    70  58  65 E5        29.95F
HAYWARD        CLOUDY    74  59  59 CALM      29.94F
SIREN          CLOUDY    74  61  63 SE6       29.90F
CUMBERLAND     PTSUNNY   72  63  73 E3        29.92F
RICE LAKE      LGT RAIN  74  64  72 E3        29.93F
CHETEK         PTSUNNY   74  66  76 MISG      29.92F
LADYSMITH      PTSUNNY   77  66  67 W3        29.96F
EAU CLAIRE     MOSUNNY   78  66  66 W3        29.93F HX  80
MENOMONIE      CLOUDY    76  68  77 S6        29.95S
NEW RICHMOND   LGT RAIN  73  65  77 S12       29.93F
OSCEOLA        CLOUDY    72  67  84 S3        29.93F
$$

WIZ003>005-009-010-017-018-212100-
NORTH CENTRAL WISCONSIN

CITY           SKY/WX    TMP DP  RH WIND       PRES   REMARKS
MANITOWISH WTR CLOUDY    75  60  59 CALM      29.97F
ARBOR VITAE    MOSUNNY   77  66  68 SW3       29.97F
WOODRUFF       MOSUNNY   77  66  68 SW3       29.97F
RHINELANDER    PTSUNNY   76  66  71 S5        29.99F
EAGLE RIVER    MOSUNNY   76  62  59 S5        29.97F
LAND O LAKES   CLOUDY    77  58  52 SW3       29.99F
PHILLIPS       CLOUDY    76  66  70 S6        29.96F
TOMAHAWK         N/A     76  66  70 S3        29.97F
MEDFORD        RAIN      73  70  91 E5        29.95F
MERRILL        MOSUNNY   79  70  73 SE3       29.96F HX  81
$$

WIZ029-030-035-036-043>047-212100-
CENTRAL WISCONSIN

CITY           SKY/WX    TMP DP  RH WIND       PRES   REMARKS
WAUSAU         LGT RAIN  73  67  81 E3        29.94F
MOSINEE        PTSUNNY   79  70  73 S9        29.96F HX  81
MARSHFIELD     PTSUNNY   76  65  68 S10       29.94F
STEVENS POINT  PTSUNNY   80  68  66 S9        29.96F HX  82
WAUPACA        MOSUNNY   81  70  69 S9        29.96F HX  84
WAUTOMA        PTSUNNY   80  69  69 S9        29.96F HX  83
WISC RAPIDS    CLOUDY    81  68  64 SW14      29.97F HX  84
CAMP DOUGLAS   PTSUNNY   79  68  69 SW9       29.94F HX  81
$$

WIZ011>013-019>022-031-037>040-048>050-212100-
NORTHEAST WISCONSIN

CITY           SKY/WX    TMP DP  RH WIND       PRES   REMARKS
ANTIGO         CLOUDY    75  68  77 S6        29.98F
SHAWANO        CLOUDY    83  70  64 S3        29.95S HX  87
OCONTO         MOSUNNY   80  70  70 SE7       29.93F HX  83
STURGEON BAY   MOSUNNY   78  72  81 S7        29.95F HX  80
GREEN BAY      PTSUNNY   79  72  79 S8        29.95S HX  82
MANITOWOC        N/A    N/A N/A N/A MISG        N/A
APPLETON       PTSUNNY   79  63  57 S12       29.96S HX  80
CLINTONVILLE   CLOUDY    81  68  65 S7        29.95S HX  83
OSHKOSH        PTSUNNY   79  69  71 S12       29.96S HX  81
$$

WIZ032>034-041-042-053>061-212100-
SOUTHWEST WISCONSIN

CITY           SKY/WX    TMP DP  RH WIND       PRES   REMARKS
LA CROSSE      CLOUDY    80  65  59 S8        29.94F HX  82
SPARTA         PTSUNNY   77  65  65 SW6       29.94F
VIROQUA        CLOUDY    75  67  75 CALM      29.96F
BOSCOBEL       CLOUDY    82  67  60 VRB6G17   29.93F HX  84
PRAIRIE DU CHI CLOUDY    79  64  59 S8        29.93F HX  81
PLATTEVILLE    CLOUDY    75  70  83 S8        29.99F
$$

WIZ056-057-062-063-064-067-068-212100-
SOUTH CENTRAL WISCONSIN

CITY           SKY/WX    TMP DP  RH WIND       PRES   REMARKS
REEDSBURG      PTSUNNY   81  71  73 S8        29.94F HX  84
BARABOO/DELLS  PTSUNNY   81  68  64 S9        29.95F HX  83
LONE ROCK      CLOUDY    81  70  69 S13       29.94F HX  84
MINERAL POINT  CLOUDY    79  70  73 S12       29.98F HX  81
MADISON        PTSUNNY   77  69  76 S9        29.97F
MIDDLETON      PTSUNNY   79  70  73 S7        29.98F HX  82
WATERTOWN      PTSUNNY   77  74  88 S7        29.98S
MONROE         CLOUDY    77  68  73 SW5       30.00S
JANESVILLE     PTSUNNY   81  70  69 S7        29.98F HX  84
$$

WIZ051-052-058>065-066-070>072-212100-
SOUTHEAST WISCONSIN

CITY           SKY/WX    TMP DP  RH WIND       PRES   REMARKS
MILWAUKEE      CLOUDY    79  71  76 SE13      29.98F HX  82
WAUKESHA       PTSUNNY   77  70  78 SE6       30.00F
MILWAUKEE/TIMM MOSUNNY   79  66  65 SE10      29.97F HX  81
RACINE         PTSUNNY   77  72  84 S9        30.01S
KENOSHA        PTSUNNY   78  71  79 SE7       30.00F HX  80
FOND DU LAC    CLOUDY    78  66  66 S8        29.96F HX  80
SHEBOYGAN      CLOUDY    78  71  79 SE7       29.97F HX  80
WEST BEND      CLOUDY    79  70  73 SE7       29.97F HX  81
JUNEAU         CLOUDY    77  69  77 S7        29.99F
$$

LSZ147-162-212100-
LAKE SUPERIOR

STATION/POSITION TIME  TEMP    WIND        PRES    WAVE
                       AIR SEA DIR/SP/G            HT/PER
                 (UTC) (F)     (DEG/KT/KT) (MB)    (FT/S)
W MID LAKE BUOY  1950   62 61   20/  4/  6 1014.0F   0
DEVILS ISLAND    2000   63      70/  7/  7 1013.7F
PORT WING        1840   69      70/  3/  6 1014.9
SAXON HARBOR     1930   68      CALM  /  3 1014.2F
$$

LMZ867-665-643>646-212100-
LAKE MICHIGAN

STATION/POSITION TIME  TEMP    WIND        PRES    WAVE
                       AIR SEA DIR/SP/G            HT/PER
                 (UTC) (F)     (DEG/KT/KT) (MB)    (FT/S)
S GREEN BAY BUOY 2000   74 74   90/  4/  4 1013.5
N MID LAKE BUOY  1950   69 70  160/  8/  8 1015.2F   1
NORTHPORT PIER   1940   71     140/  7/  9 1014.6F
KEWAUNEE LAKESHO 1942   70     180/  6/  7 1013.6F
SHEBOYGAN LAKESH 2000   72     140/ 10/ 11 1014.1F
PORT WASHINGTON  1930   76     180/  6/  8 1015.9F
ATWATER BUOY     1939   72 71  170/ 12/ 14 1015.4F
MILWAUKEE LAKESH 1950   73     150/ 12/ 13   N/A
S MID LAKE BUOY  1950   73 72  190/ 10/ 12 1016.0F   1/ 4
KENOSHA   LAKESH 2000   75     160/  5/  8 1015.2
$$

TC  - TEMPERATURE IN CELSIUS
VSB - VISIBILITY IN STATUTE MILES
WCI - WIND CHILL INDEX
HX  - HEAT INDEX





USA.gov is the U.S. government's official web portal to all federal, state and local government web resources and services.